{"data":{"norad_id":53193,"epoch":"2026-05-25T03:02:57.532128Z","epoch_age_seconds":78268,"freshness":"FRESH","line1":"1 53193U 22084E   26145.12705477 -.00007759  00000+0 -53399-3 0  9999","line2":"2 53193  97.4498 205.0598 0000614 224.5226 135.5952 15.05671161211824","mean_motion":15.05671161,"eccentricity":6.14e-5,"inclination_deg":97.4498,"raan_deg":205.0598,"arg_perigee_deg":224.5226,"mean_anomaly_deg":135.5952,"bstar":-0.00053399,"rev_number":21182,"period_min":95.638412775577,"perigee_km":549.02089191848,"apogee_km":549.87159914103,"semimajor_km":6927.5832455298,"source":"CELESTRAK","updated_at":"2026-05-25T13:38:17.348383Z"}}